Home   Weather   West Covina   Past weeks

Flag for USA Past Weather in West Covina, California, USA — Yesterday and Last 2 Weeks

Now
77 °F

Sunny.


Feels Like: 78 °F
Forecast: 58 / 84 °F
Wind: 9 mph from South

Location: Fullerton Municipal Airport

Current Time: Apr 28, 2017 at 1:25:32 pm

Latest Report: Apr 28, 2017 at 11:53 am


Visibility: 10 mi

Pressure: 29.78 "Hg

Humidity: 37%

Dew Point: 49 °F

Location of West CovinaLocation

Past Weather in West Covina — Graph

°F

West Covina Temperature Yesterday

Maximum temperature yesterday: 85 °F (at 5:53 pm)
Minimum temperature yesterday: 60 °F (at 3:53 am)
Average temperature yesterday: 69 °F

High & Low Weather Summary for the Past Weeks

 TemperatureHumidityPressure
High91 °F (Apr 21, 3:53 pm)93% (Apr 18, 9:34 pm)30.12 "Hg (Apr 18, 9:34 pm)
Low50 °F (Apr 15, 5:53 am)15% (Apr 27, 5:53 pm)29.67 "Hg (Apr 27, 6:53 pm)
Average67 °F61%29.93 "Hg
* Reported Apr 13 11:53 am — Apr 28 11:53 am, West Covina, Weather by CustomWeather, © 2017

Note: Actual official high and low records may vary slightly from our data, if they occured in-between our weather recording intervals... More about our weather records

Advertising

West Covina Weather History for the Previous 24 Hours

Scroll right to see more
 ConditionsComfort  
Time TempWeatherWind HumidityBarometerVisibility
11:53 am
Fri, Apr 28
77 °FSunny.9 mph37%29.78 "Hg10 mi
10:53 am75 °FSunny.No wind43%29.79 "Hg10 mi
9:53 am71 °FSunny.3 mph53%29.80 "Hg10 mi
8:53 am66 °FSunny.5 mph70%29.79 "Hg10 mi
7:53 am63 °FSunny.No wind75%29.79 "Hg10 mi
6:53 am61 °FSunny.6 mph81%29.76 "Hg10 mi
5:53 am61 °FClear.3 mph81%29.74 "Hg10 mi
4:53 am61 °FClear.3 mph81%29.72 "Hg10 mi
3:53 am61 °FClear.6 mph81%29.71 "Hg10 mi
2:53 am62 °FClear.7 mph78%29.71 "Hg10 mi
1:53 am63 °FClear.6 mph75%29.71 "Hg10 mi
12:53 am65 °FClear.7 mph70%29.71 "Hg10 mi
11:53 pm
Thu, Apr 27
76 °FClear.7 mph21%29.71 "Hg10 mi
10:53 pm77 °FClear.9 mph21%29.70 "Hg10 mi
9:53 pm71 °FClear.7 mph47%29.72 "Hg10 mi
8:53 pm75 °FClear.6 mph31%29.70 "Hg10 mi
7:53 pm80 °FClear.6 mph20%29.69 "Hg10 mi
6:53 pm83 °FSunny.13 mph17%29.67 "Hg10 mi
5:53 pm85 °FSunny.9 mph15%29.68 "Hg10 mi
4:53 pm79 °FSunny.8 mph35%29.70 "Hg10 mi
3:53 pm75 °FSunny.9 mph48%29.71 "Hg10 mi
2:53 pm75 °FSunny.7 mph48%29.73 "Hg10 mi
1:53 pm73 °FSunny.9 mph53%29.75 "Hg10 mi
Weather by CustomWeather, © 2017

See weather overviewHow to use our weather pages